Terminal Aerodrome Forecast
Issued by NWS Blacksburg, VA

Current Version | Previous Version | Graphics & Text | Print | Product List | Glossary On
Versions: 1 2 3 4 5 6 7 8 9 10 11 12 13 14 15 16 17 18 19 20 21 22 23 24 25 26 27 28 29 30 31 32 33 34
000
FTUS41 KRNK 091720
TAFBLF
TAF
KBLF 091720Z 0918/1018 27015G25KT 3SM TSRA BKN015CB OVC040
     FM092000 27006KT P6SM BKN025 OVC080
     FM100300 24003KT 4SM BR OVC025
     FM100900 VRB03KT 2SM BR BKN007
     FM101400 VRB03KT P6SM SCT015 BKN100=

USA.gov is the U.S. government's official web portal to all federal, state and local government web resources and services.